FW4151 Weather Reports


time (UTC)temp
C
wind
direction
speed
KPH
gust
KPH
rain 1hr
cm
rain 24hr
cm
rain mn
cm
humidity
%
barometer
mb
20260503010005 4 0.0 0.0 0.00 0.13 0.03 60 1013.0
20260503004505 4 0.0 0.0 0.00 0.20 0.03 60 1013.0
20260503003005 4 0.0 0.0 0.00 0.20 0.03 59 1012.8
20260503001504 5 0.0 0.0 0.00 0.20 0.03 59 1012.7
20260503000009 5 0.0 0.0 0.00 0.20 0.03 60 1012.7
20260502234502 5 0.0 0.0 0.00 0.41 0.03 60 1012.6
20260502233002 5 0.0 0.0 0.00 0.41 0.03 59 1012.5
20260502231502 5 0.0 0.0 0.00 0.41 0.03 60 1012.4
20260502230000 5 0.0 0.0 0.00 0.41 0.03 60 1012.3
20260502224600 6 0.0 0.0 0.00 0.41 0.03 56 1012.2
20260502223200 6 0.0 0.0 0.00 0.41 0.03 57 1012.2
20260502221604 6 0.0 0.0 0.00 0.41 0.03 57 1012.3
20260502220104 6 0.0 0.0 0.00 0.41 0.03 55 1012.2
20260502214607 6 0.0 0.0 0.00 0.41 0.03 53 1012.2
20260502213057 7 0.0 0.0 0.00 0.41 0.03 53 1012.0
20260502211606 7 0.0 0.0 0.00 0.41 0.03 53 1011.9
20260502204556 7 0.0 0.0 0.00 0.41 0.03 49 1011.9
20260502203103 7 0.0 0.0 0.00 0.41 0.03 46 1011.8
20260502201555 7 0.0 0.0 0.00 0.41 0.03 52 1012.0
20260502200054 7 0.0 0.0 0.00 0.41 0.03 47 1012.1
20260502194555 7 0.0 0.0 0.00 0.41 0.03 47 1012.4
20260502193053 7 0.0 0.0 0.00 0.41 0.03 51 1012.5
20260502191552 7 0.0 0.0 0.00 0.41 0.03 46 1012.7
20260502190053 7 0.0 0.0 0.00 0.41 0.03 51 1012.8
20260502184553 7 0.0 0.0 0.00 0.41 0.03 51 1012.8
20260502183055 7 0.0 0.0 0.00 0.41 0.03 52 1012.8
20260502181552 7 0.0 0.0 0.00 0.41 0.03 48 1012.8
20260502163050 7 0.0 0.0 0.00 0.41 0.03 49 1012.7
20260502161546 7 0.0 0.0 0.00 0.41 0.03 51 1012.8
20260502151539 6 0.0 0.0 0.00 0.41 0.03 62 1013.0
20260502123021 3 0.0 0.0 0.00 0.41 0.03 86 1012.9
20260502121518 3 0.0 0.0 0.00 0.41 0.03 85 1012.9
20260502114515 3 0.0 0.0 0.00 0.41 0.03 88 1012.9
20260502113017 3 0.0 0.0 0.00 0.41 0.03 92 1012.9
20260502111511 2 0.0 0.0 0.00 0.41 0.03 92 1012.8
20260502110006 -17 0.0 0.0 0.00 0.41 0.03 1012.4
20260502104508 -17 0.0 0.0 0.00 0.41 0.03 1012.5
20260502103113 -17 0.0 0.0 0.00 0.41 0.03 1012.5
20260502101555 -17 0.0 0.0 0.00 0.41 0.03 1012.5
20260502100109 -17 0.0 0.0 0.00 0.41 0.03 1012.3
20260502070022 3 0.0 0.0 0.00 0.38 0.00 91 1011.7
20260502064518 3 0.0 0.0 0.00 0.38 0.00 90 1011.7
20260502063017 3 0.0 0.0 0.00 0.38 0.00 91 1011.5
20260502061515 3 0.0 0.0 0.00 0.38 0.00 92 1011.7
20260502060013 4 0.0 0.0 0.00 0.38 0.00 92 1011.5
20260502054517 4 0.0 0.0 0.00 0.38 0.00 93 1011.4
20260502053011 4 0.0 0.0 0.00 0.38 0.00 92 1011.4
20260502051522 4 0.0 0.0 0.00 0.38 0.00 92 1011.2
20260502050007 4 0.0 0.0 0.00 0.38 0.00 91 1011.3
20260502044505 4 0.0 0.0 0.00 0.38 0.00 91 1011.5
20260502043004 5 0.0 0.0 0.00 0.38 0.00 91 1011.7
20260502041501 5 0.0 0.0 0.00 0.38 0.00 92 1011.6
20260502040058 5 0.0 0.0 0.03 0.38 0.00 93 1011.4
20260502034558 5 0.0 0.0 0.03 0.38 0.38 93 1011.2
20260502033058 5 0.0 0.0 0.03 0.38 0.38 93 1011.1
20260502031611 5 0.0 0.0 0.03 0.38 0.38 92 1011.3
20260502030056 5 0.0 0.0 0.03 0.36 0.36 92 1011.4
20260502024558 5 0.0 0.0 0.05 0.36 0.36 92 1011.4
20260502023055 5 0.0 0.0 0.08 0.36 0.36 92 1011.4
20260502021556 5 0.0 0.0 0.08 0.36 0.36 92 1011.6
20260502020106 5 0.0 0.0 0.05 0.33 0.33 91 1011.6
20260502014553 5 0.0 0.0 0.05 0.30 0.30 91 1011.5
20260502013056 5 0.0 0.0 0.05 0.28 0.28 90 1011.4
20260502011553 5 0.0 0.0 0.05 0.28 0.28 89 1011.4